Location: Palo Alto
(37.4420°N, 122.1420°W)
Time: 07:03:22
(UTC-07:00)

ISS - All Passes

Search period start: 02 September 2014 00:00
Search period end: 12 September 2014 00:00
Orbit: 414 x 419 km, 51.6° (Epoch: 02 September)

Date Brightness Start Highest point End Pass type
(mag) Time Alt. Az. Time Alt. Az. Time Alt. Az.
02 Sep - 09:53:02 10° SW 09:56:21 80° NW 09:59:41 10° NE daylight
02 Sep - 11:31:40 10° WNW 11:33:32 14° NNW 11:35:24 10° NNE daylight
02 Sep - 14:48:14 10° N 14:49:34 12° NNE 14:50:53 10° NE daylight
02 Sep - 16:23:38 10° NW 16:26:54 53° NE 16:30:10 10° ESE daylight
02 Sep - 18:01:34 10° W 18:03:17 14° SW 18:05:00 10° SSW daylight
03 Sep - 09:04:35 10° SSW 09:07:50 53° SE 09:11:05 10° ENE daylight
03 Sep - 10:42:16 10° WNW 10:44:46 19° NNW 10:47:16 10° NNE daylight
03 Sep - 15:35:14 10° NNW 15:38:16 31° NNE 15:41:17 10° E daylight
03 Sep - 17:12:08 10° WNW 17:14:54 24° SW 17:17:40 10° S daylight
04 Sep - 08:16:28 10° SSW 08:19:21 28° SE 08:22:15 10° ENE daylight
04 Sep - 09:53:05 10° W 09:56:02 29° NNW 09:58:59 10° NNE daylight
04 Sep - 14:46:56 10° NNW 14:49:33 21° NNE 14:52:10 10° E daylight
04 Sep - 16:23:14 10° WNW 16:26:26 46° SW 16:29:38 10° SSE daylight
05 Sep - 07:28:54 10° SSE 07:30:55 15° SE 07:32:57 10° E daylight
05 Sep - 09:04:08 10° WSW 09:07:21 47° NW 09:10:35 10° NE daylight
05 Sep - 10:43:39 10° NW 10:44:45 11° NNW 10:45:50 10° N daylight
05 Sep - 13:58:44 10° NNW 14:00:45 15° NNE 14:02:46 10° ENE daylight
05 Sep - 15:34:33 10° NW 15:37:53 90° SW 15:41:12 10° SE daylight
06 Sep - 08:15:24 10° SW 08:18:43 88° NW 08:22:03 10° NE daylight
06 Sep - 09:53:53 10° WNW 09:55:52 15° NNW 09:57:51 10° NNE daylight
06 Sep - 13:10:44 10° N 13:11:52 11° NNE 13:13:01 10° NE daylight
06 Sep - 14:46:00 10° NW 14:49:15 48° NE 14:52:29 10° ESE daylight
06 Sep - 16:23:42 10° W 16:25:40 15° SW 16:27:38 10° SSW daylight
07 Sep - 07:26:56 10° SSW 07:30:08 47° SE 07:33:21 10° ENE daylight
07 Sep - 09:04:26 10° W 09:07:01 21° NNW 09:09:37 10° NNE daylight
07 Sep - 13:57:34 10° NNW 14:00:32 29° NNE 14:03:29 10° E daylight
07 Sep - 15:34:20 10° WNW 15:37:12 27° SW 15:40:03 10° SSE daylight
08 Sep - 06:38:49 10° S 06:41:36 25° SE 06:44:23 10° ENE daylight
08 Sep - 08:15:14 10° W 08:18:14 31° NNW 08:21:15 10° NNE daylight
08 Sep - 13:09:12 10° NNW 13:11:43 20° NNE 13:14:15 10° ENE daylight
08 Sep - 14:45:24 10° WNW 14:48:39 51° SW 14:51:52 10° SSE daylight
09 Sep - 05:51:20 10° SSE 05:53:06 14° SE 05:54:52 10° E visible
09 Sep - 07:26:14 10° WSW 07:29:29 52° NW 07:32:45 10° NE daylight
09 Sep - 09:05:33 10° NW 09:06:50 12° NNW 09:08:07 10° N daylight
09 Sep - 12:20:56 10° NNW 12:22:50 14° NNE 12:24:43 10° ENE daylight
09 Sep - 13:56:40 10° NW 14:00:00 81° NE 14:03:19 10° SE daylight
10 Sep - 06:37:28 10° SW 06:40:47 83° SE 06:44:07 10° NE daylight
10 Sep - 08:15:46 10° WNW 08:17:53 16° NNW 08:20:00 10° NNE daylight
10 Sep - 11:32:57 10° N 11:33:52 11° NNE 11:34:47 10° NNE daylight
10 Sep - 13:08:04 10° NW 13:11:17 44° NE 13:14:29 10° ESE daylight
10 Sep - 14:45:33 10° W 14:47:44 17° SW 14:49:55 10° S daylight
11 Sep - 05:48:59 10° SSW 05:52:08 42° SE 05:55:18 10° ENE visible
11 Sep - 07:26:18 10° W 07:28:59 22° NNW 07:31:39 10° NNE daylight
11 Sep - 12:19:34 10° NNW 12:22:28 27° NNE 12:25:22 10° E daylight
11 Sep - 13:56:13 10° WNW 13:59:11 30° SW 14:02:08 10° SSE daylight
